Location: Jetmore Oil Field
(38.1181°N, 99.9337°W)
Time: 08:32:24
(UTC+00:00)

Cosmos 2346 Rocket - Pass Details

Date: 17 February 2020
Orbit: 936 x 981 km, 82.9° (Epoch: 31 March)

Event Time Altitude Azimuth Distance (km) Brightness Sun altitude
Rises 01:43:19 0° 352° (N) 3,687 7.6 -17.2°
Reaches altitude 10° 01:45:51 10° 352° (N) 2,732 6.9 -17.7°
Maximum altitude 01:52:08 85° 264° (W) 979 4.5 -18.9°
Drops below altitude 10° 01:58:18 10° 177° (S) 2,688 6.8 -20.1°
Sets 02:00:46 0° 177° (S) 3,623 7.5 -20.6°
